#timestamp,LO_Frequency,Hit,StdDev 
1600927215.8,286046995.9,N
1600927235.6,286047002.0,N
1600927255.5,286047005.1,N
1600927275.3,286047004.5,N
1600927295.2,286047003.7,N
1600927315.9,286047001.5,N
1600927335.7,286047006.0,N
1600927355.6,286047007.1,N
1600927375.4,286047008.9,N
1600927395.3,286047008.4,N
1600927415.1,286047008.0,N
1600927416.0,286047008.0,N
1600927435.8,286047010.2,N
1600927455.7,286047009.5,N
1600927475.5,286047011.8,N
1600927495.3,286047011.7,N
1600927515.2,286047012.8,N
1600927535.0,286047015.0,N
1600927535.9,286047015.0,N
1600927555.8,286047013.4,N
1600927575.6,286047013.4,N
1600927595.4,286047015.6,N
1600927615.3,286047016.9,N
1600927635.1,286047014.4,N
1600927655.8,286047017.1,N
1600927675.7,286047018.4,N
1600927695.5,286047015.7,N
1600927715.4,286047016.6,N
1600927735.2,286047016.9,N
1600927755.0,286047015.9,N
1600927755.9,286047015.9,N
1600927775.8,286047017.9,Y
1600927795.6,286047008.5,P
1600927815.5,286047008.3,P
1600927835.3,286047004.7,P
1600927855.1,286047007.3,Y
1600927875.9,286046996.7,P
1600927895.7,286046998.4,N
1600927915.5,286046997.8,N
1600927935.4,286046997.3,N
1600927955.2,286046995.0,N
1600927975.1,286046998.9,N
1600927976.0,286046998.9,N
1600927995.8,286046997.8,N
1600928015.6,286046997.9,N
1600928035.5,286046999.4,N
1600928055.3,286046998.7,N
1600928075.2,286046999.4,N
1600928095.9,286046995.4,N
1600928115.7,286046996.1,N
1600928135.6,286046993.6,N
1600928155.4,286046994.0,N
1600928175.2,286046994.2,N
1600928195.1,286046994.4,N
1600928196.0,286046994.4,N
1600928215.8,286046991.9,N
1600928235.7,286046994.4,N
1600928255.5,286046993.4,N
1600928275.3,286046994.7,N
1600928295.2,286046992.0,N
1600928315.0,286046994.8,N
1600928315.9,286046994.8,N
1600928335.7,286046992.6,N
1600928355.6,286046991.8,N
1600928375.4,286046992.8,N
1600928395.3,286046990.4,N
1600928415.1,286046990.8,Y
1600928435.8,286046993.3,P
1600928455.7,286046996.0,P
1600928475.5,286046996.1,P
1600928495.4,286046997.1,N
1600928515.2,286046994.3,Y
1600928535.0,286047001.2,P
1600928535.9,286047001.2,N
1600928555.8,286046998.3,N
1600928575.6,286047000.4,N
1600928595.4,286046998.5,N
1600928615.3,286046998.3,N
1600928635.1,286047001.0,N
1600928655.9,286046999.9,N
1600928675.7,286047004.4,N
1600928695.5,286047004.3,N
1600928715.4,286047002.2,N
1600928735.2,286047001.4,N
1600928755.0,286047001.6,N
1600928756.0,286047001.6,N
1600928775.8,286047001.6,N
1600928795.6,286046998.2,N
1600928815.5,286046999.4,N
1600928835.3,286046996.6,N
1600928855.1,286046993.7,N
1600928875.9,286046993.9,N
1600928895.7,286046993.5,N
1600928915.6,286046998.0,N
1600928935.4,286046991.7,N
1600928955.2,286046990.8,N
1600928975.1,286046991.1,N
1600928976.0,286046991.1,N
1600928995.8,286046989.4,N
1600929015.6,286046987.7,N
1600929035.5,286046989.6,N
1600929055.3,286046989.4,N
1600929075.2,286046990.9,N
1600929095.9,286046990.6,N
1600929145.8,286046991.6,E
1600929155.7,286046992.7,N
1600929175.5,286046995.2,P
1600929195.4,286046995.6,P
1600929215.2,286046995.7,Y
1600929235.1,286046999.9,P
1600929236.0,286046999.9,N
1600929255.8,286047000.5,N
1600929275.6,286047004.0,N
1600929295.5,286047001.8,N
1600929315.3,286047004.2,N
1600929335.1,286047005.0,N
1600929355.9,286047005.1,N
1600929375.7,286047005.8,N
1600929395.6,286047004.5,N
1600929415.4,286047006.7,N
1600929435.2,286047003.2,N
1600929455.1,286047004.7,N
1600929456.0,286047004.7,N
1600929475.8,286047007.2,N
1600929495.6,286047007.5,N
1600929515.5,286047006.6,N
1600929535.3,286047006.7,N
1600929555.2,286047004.7,N
1600929575.9,286047003.3,N
1600929595.7,286047003.4,N
1600929615.6,286047005.0,N
1600929635.4,286047007.0,N
1600929655.3,286047005.3,N
1600929675.1,286047008.5,N
1600929676.0,286047008.5,N
1600929695.8,286047010.6,Y
1600929715.7,286047005.4,P
1600929735.5,286047004.0,P
1600929755.3,286047000.4,N
1600929775.2,286046999.5,N
1600929795.0,286046995.5,N
1600929795.9,286046995.5,N
1600929845.8,286046995.0,E
1600929855.7,286046999.4,N
1600929875.6,286046999.9,P
1600929895.4,286047000.2,N
1600929915.2,286047001.0,N
1600929935.1,286046998.7,N
1600929936.0,286046998.7,N
1600929955.8,286046998.6,N
1600929975.6,286046999.3,N
1600929995.5,286046997.1,Y
1600930015.3,286046998.0,P
1600930035.2,286047000.8,N
1600930055.9,286046996.6,N
1600930075.7,286046999.2,N
1600930095.6,286046996.8,N
1600930115.4,286046999.2,N
1600930135.3,286046996.8,N
1600930155.1,286046996.7,N
1600930156.0,286046996.7,N
1600930175.8,286046997.5,N
1600930195.7,286046994.9,Y
1600930215.5,286047001.0,P
1600930235.3,286046998.2,N
1600930255.2,286046998.2,N
1600930275.0,286047001.0,N
1600930275.9,286047001.0,N
1600930295.8,286047002.2,N
1600930315.6,286047003.7,N
1600930335.4,286047003.9,N
1600930355.3,286047001.5,N
1600930375.1,286047002.3,N
1600930395.9,286047000.5,N
1600930415.7,286047002.6,N
1600930435.5,286047000.2,N
1600930455.4,286047002.3,N
1600930475.2,286047001.8,N
1600930495.0,286047003.7,N
1600930495.9,286047003.7,N
1600930515.8,286047003.1,N
1600930535.6,286046999.7,N
1600930555.5,286047000.0,N
1600930575.3,286046999.9,N
1600930595.1,286047004.0,N
1600930615.9,286047002.5,N
1600930635.7,286047002.7,N
1600930655.5,286047002.1,N
1600930675.4,286047006.0,Y
1600930695.2,286047002.0,P
1600930715.1,286046998.9,P
1600930716.0,286046998.9,N
1600930735.8,286047011.9,Y
1600930755.6,286046997.5,P
1600930775.5,286046996.9,N
1600930795.3,286047001.1,N
